Wind_Speed
33 33 35 36 38 41 44 45 48 50 52 54 58 60 65 70 70 74 77 79 80 81 82 82 85 85 86 86 88 89 90 91 92 94 95 96 99 101 101 101 98 99 103 106
38 39 41 42 44 47 49 51 54 56 59 61 65 66 73 76 76 82 85 85 87 88 88 89 91 91 94 94 95 96 96 96 96 96 98 99 99 101 102 104 103 104 105 104
43 43 45 47 48 51 53 54 58 61 63 67 70 68 72 76 74 79 83 84 85 85 86 88 89 91 92 94 95 96 98 99 100 100 101 101 101 102 103 104 103 101 104 107
40 41 42 44 46 47 50 50 53 55 57 59 66 62 73 77 75 74 83 85 87 89 89 91 92 94 95 96 96 98 98 99 100 100 101 101 102 103 103 104 104 102 106 107
33 37 39 41 43 44 47 50 54 57 61 61 70 68 75 83 83 82 85 87 88 92 93 95 99 101 102 102 101 101 100 101 101 101 101 101 101 101 102 103 105 106 109 108
34 35 40 42 45 46 52 56 60 63 68 68 77 73 75 85 88 90 90 93 92 92 94 96 100 102 102 102 104 104 106 107 106 105 104 103 103 103 102 102 104 106 107 106
34 36 43 48 51 54 57 62 63 63 70 73 84 85 86 88 89 89 92 96 96 96 95 95 101 100 99 98 98 101 102 103 105 106 105 105 104 102 103 101 106 104 106 102
38 43 44 48 54 57 60 65 68 67 70 68 75 79 82 87 83 79 83 88 87 92 94 94 97 97 95 93 93 91 92 93 96 97 96 95 96 94 91 87 86 88 89 96
42 46 48 50 56 59 66 69 70 68 68 64 60 62 63 79 80 79 77 82 81 87 88 94 92 91 88 84 83 85 85 84 84 85 86 84 84 84 81 76 75 67 76 69
44 45 49 56 60 63 63 66 66 67 63 61 57 63 69 74 79 77 83 87 85 85 89 84 87 86 85 80 76 88 76 74 74 75 74 72 74 71 69 64 52 56 70 73
45 49 55 58 61 64 66 67 66 68 72 74 68 67 69 72 74 77 79 82 79 77 78 70 73 78 76 73 71 72 70 69 69 70 68 67 70 70 69 69 69 75 73 80
49 55 57 62 63 64 64 65 66 68 69 77 78 73 74 69 66 66 66 64 62 63 64 58 58 60 61 63 64 64 61 58 61 64 62 67 66 73 70 69 68 73 75 72
53 56 57 64 62 57 61 67 69 73 73 80 81 79 76 74 64 53 49 48 45 47 49 50 45 45 45 46 48 51 53 53 53 53 50 55 59 63 63 60 60 60 61 61
58 62 60 68 70 68 67 70 73 76 76 77 84 81 75 71 59 50 44 41 38 37 39 38 36 39 35 34 34 36 39 42 44 46 48 52 53 51 49 49 52 52 52 50
61 62 68 75 67 68 70 73 76 77 79 78 79 80 73 63 53 46 42 35 31 30 29 30 32 33 32 30 29 28 29 31 33 36 38 42 44 44 46 43 42 41 40 44
63 66 71 75 68 70 71 75 76 79 79 78 79 74 68 53 46 43 34 30 27 25 24 25 26 26 25 25 25 25 22 19 22 25 28 29 31 32 33 30 35 36 39 39
67 64 64 69 71 73 71 75 78 80 79 75 74 67 61 42 39 31 26 22 20 19 20 20 21 21 20 20 18 18 16 15 17 17 17 19 24 25 24 24 30 33 33 34
69 66 69 68 71 76 75 75 79 78 78 74 68 61 46 34 32 20 17 14 14 13 15 16 17 16 16 16 13 14 13 16 15 17 18 19 18 15 19 21 24 28 26 23
68 69 71 73 73 76 76 77 80 77 75 71 60 54 36 30 27 20 16 15 19 17 18 18 15 12 10 9 6 9 13 15 16 17 18 16 12 12 12 14 15 15 13 13
68 69 69 74 76 78 85 80 76 73 68 65 56 45 31 28 25 20 16 15 16 19 19 19 20 17 11 6 1 12 16 18 17 16 16 13 8 4 4 4 7 8 6 5
68 69 72 75 79 82 79 78 72 67 62 56 47 36 29 26 19 19 13 8 12 17 21 21 19 16 10 3 2 17 19 23 20 15 14 9 6 13 24 22 16 14 10 6
74 76 79 81 84 84 79 74 69 62 56 47 42 27 25 17 15 11 10 12 15 18 19 21 19 15 12 4 3 9 16 18 18 16 14 20 38 33 28 23 18 12 10 9
78 81 82 83 84 81 75 69 62 52 45 40 30 20 17 11 10 11 13 15 16 15 16 20 16 14 10 8 6 7 12 17 18 23 45 40 33 30 23 21 21 17 22 17
85 82 79 79 79 72 67 63 52 43 38 31 19 15 13 11 9 7 8 11 14 16 18 18 14 13 10 4 7 12 16 24 41 51 43 37 35 33 25 23 26 26 22 23
86 79 76 72 66 61 63 54 45 37 30 24 15 14 12 12 11 14 13 18 19 18 15 15 12 9 7 1 9 19 36 53 50 46 42 38 32 27 24 25 29 28 27 22
78 74 68 59 58 55 53 46 36 30 23 17 11 12 12 16 14 12 14 18 20 17 15 14 9 4 2 5 20 44 58 53 48 48 41 36 37 40 34 30 26 22 17 12
Wind_Direction
279 279 277 274 272 270 268 267 266 266 265 266 266 266 266 267 267 266 266 266 266 266 266 266 268 268 267 265 263 261 259 259 259 259 259 258 258 257 255 255 256 259 259 259
273 273 272 272 272 271 269 270 270 270 269 267 267 267 267 266 266 267 266 267 267 266 266 265 265 264 265 265 265 264 264 263 262 262 262 261 260 260 259 257 256 255 254 256
272 273 274 274 274 275 275 274 274 273 273 274 271 272 271 271 273 273 272 271 270 269 268 268 267 266 266 265 264 264 263 263 263 263 263 263 263 263 262 262 260 258 257 256
278 278 277 278 278 279 279 278 279 278 277 277 279 275 277 276 272 270 274 274 275 274 274 273 272 271 269 267 266 266 266 265 263 262 261 261 262 262 263 263 263 261 265 260
275 279 279 280 282 284 286 286 284 282 280 278 276 276 277 272 270 272 270 268 269 270 270 269 270 270 269 269 268 267 266 266 265 265 265 264 264 263 262 262 263 262 260 261
279 282 285 284 283 284 288 289 288 288 284 282 281 279 282 280 281 278 276 273 270 268 271 270 269 267 267 268 268 268 267 266 265 265 264 264 264 265 265 266 266 266 265 263
290 295 295 297 295 294 292 293 292 294 294 297 293 286 282 279 279 278 277 278 280 278 274 271 270 270 269 269 270 268 266 266 265 264 264 265 265 265 266 267 268 269 268 268
293 295 298 300 302 305 305 304 302 300 298 298 296 294 292 286 280 279 278 277 275 274 274 271 271 271 272 271 269 269 267 266 263 262 262 263 263 265 266 268 270 271 273 270
304 304 303 304 306 308 311 308 305 305 306 302 302 300 301 293 292 289 284 278 275 276 273 276 275 275 273 272 271 269 266 265 264 263 262 262 262 261 262 261 262 270 266 264
302 301 306 310 310 312 313 310 309 310 311 311 311 309 301 299 295 292 289 287 284 281 280 277 277 276 274 272 270 267 266 264 262 261 260 258 260 258 258 258 251 254 257 258
302 306 311 311 312 314 313 314 314 316 314 318 312 314 306 300 299 297 294 290 288 285 282 281 274 271 272 271 269 266 265 263 261 259 258 258 259 260 258 257 256 258 261 266
305 308 312 315 317 318 315 314 315 312 313 313 317 319 310 306 305 299 295 293 290 287 288 286 277 276 273 270 267 266 265 262 258 258 258 257 255 258 259 259 259 260 262 263
308 306 312 314 315 314 314 316 318 320 319 317 318 320 317 316 314 307 300 298 296 290 288 287 292 280 275 271 268 265 263 260 256 254 252 251 251 253 255 256 257 257 261 264
309 310 315 316 316 314 316 318 318 319 320 320 319 321 321 320 317 315 311 305 305 301 294 292 288 283 285 285 276 267 259 254 251 247 244 245 249 250 251 253 256 260 261 264
308 310 314 310 313 312 316 317 319 320 320 320 320 322 323 321 320 323 319 314 312 312 310 303 300 293 285 280 275 267 260 252 246 243 240 241 246 249 251 254 259 262 262 262
307 309 309 308 311 311 315 317 318 319 318 320 322 322 324 320 323 323 320 319 320 316 310 305 302 302 291 282 273 264 254 246 238 232 231 232 232 239 247 247 250 255 260 264
306 307 309 307 310 311 316 317 317 319 318 320 323 322 322 319 321 328 332 331 327 329 324 318 312 308 301 291 284 266 250 229 219 208 208 213 217 225 229 230 244 259 269 275
302 304 307 308 310 311 316 316 314 318 316 320 323 323 318 316 314 322 330 341 343 356 353 331 316 314 312 298 286 262 225 210 190 182 189 199 213 213 231 239 249 267 280 280
301 304 307 308 309 311 315 314 313 315 315 318 321 322 314 310 310 321 340 356 352 358 4 7 347 337 337 316 286 233 209 176 174 187 190 194 215 198 222 258 284 298 293 290
300 304 306 308 308 311 315 314 314 314 315 316 318 317 309 307 305 310 319 333 358 360 6 9 11 7 360 347 259 197 178 173 185 188 148 150 185 229 294 342 92 74 27 349
302 304 306 308 307 309 312 311 314 314 314 313 314 310 307 304 303 311 331 360 12 3 10 7 6 10 7 18 181 182 167 165 153 147 162 149 105 110 106 113 98 81 62 33
304 307 308 308 308 308 311 310 312 313 310 309 309 302 300 299 303 328 339 352 357 351 353 357 359 9 12 39 105 219 181 161 152 141 119 121 116 117 119 112 110 100 73 61
303 306 307 305 305 309 309 309 312 308 303 303 299 294 285 292 306 328 339 342 346 341 337 342 353 358 19 30 137 179 167 143 131 123 121 122 126 119 116 118 102 84 63 51
303 306 305 305 306 308 308 308 309 305 298 300 279 274 268 280 290 297 310 308 307 314 325 336 350 355 357 51 100 131 143 129 125 125 127 123 124 117 106 99 95 87 80 78
303 303 304 306 306 308 307 308 305 301 297 287 256 260 257 266 269 278 293 297 296 306 312 317 343 333 1 350 132 132 128 129 130 123 120 125 118 111 102 101 99 95 97 93
302 300 304 305 306 307 306 306 304 293 289 262 249 253 261 272 265 277 280 285 288 289 296 309 327 349 10 121 131 132 134 130 129 125 122 114 108 105 105 102 96 92 90 85
Height
10790 10789 10788 10787 10786 10785 10784 10784 10782 10781 10781 10779 10775 10773 10767 10761 10762 10757 10753 10751 10751 10751 10750 10751 10747 10745 10743 10743 10742 10743 10742 10743 10745 10744 10746 10748 10749 10751 10753 10757 10761 10761 10763 10766
10782 10781 10779 10778 10776 10775 10774 10773 10770 10769 10766 10764 10758 10758 10748 10744 10745 10737 10733 10733 10729 10729 10729 10729 10727 10726 10723 10722 10720 10720 10719 10719 10721 10723 10722 10723 10726 10727 10730 10732 10740 10743 10742 10742
10772 10772 10769 10767 10766 10763 10761 10763 10758 10755 10751 10745 10742 10743 10731 10725 10727 10716 10712 10708 10707 10706 10706 10704 10702 10701 10699 10696 10695 10694 10694 10695 10697 10697 10697 10698 10700 10702 10702 10705 10712 10723 10721 10716
10763 10761 10758 10756 10755 10753 10749 10750 10744 10740 10736 10733 10721 10729 10710 10703 10705 10706 10692 10688 10684 10681 10681 10679 10675 10671 10669 10667 10668 10667 10668 10668 10670 10672 10673 10674 10675 10677 10679 10679 10683 10696 10696 10693
10756 10750 10748 10746 10744 10742 10738 10735 10730 10726 10719 10719 10704 10707 10693 10681 10680 10679 10672 10670 10668 10661 10659 10654 10646 10641 10638 10638 10638 10639 10642 10642 10641 10643 10646 10647 10649 10653 10653 10656 10656 10661 10671 10666
10744 10743 10738 10736 10733 10732 10726 10720 10714 10709 10701 10701 10684 10687 10679 10661 10653 10650 10648 10641 10643 10640 10634 10625 10615 10612 10610 10609 10610 10612 10611 10613 10614 10615 10619 10622 10624 10626 10629 10631 10630 10633 10634 10641
10735 10734 10727 10722 10720 10716 10712 10705 10703 10701 10686 10679 10654 10655 10649 10643 10633 10630 10620 10612 10609 10606 10598 10596 10583 10583 10584 10584 10587 10579 10579 10582 10583 10586 10590 10595 10599 10600 10604 10610 10602 10608 10604 10609
10728 10722 10720 10715 10707 10702 10694 10686 10680 10680 10669 10667 10644 10631 10616 10601 10609 10605 10595 10583 10583 10569 10563 10560 10555 10555 10556 10555 10552 10553 10551 10552 10554 10557 10563 10568 10571 10575 10581 10587 10580 10580 10580 10574
10717 10712 10707 10702 10694 10687 10677 10668 10662 10657 10648 10643 10634 10618 10605 10573 10576 10570 10569 10556 10554 10541 10536 10528 10527 10526 10525 10529 10529 10526 10524 10526 10528 10532 10538 10545 10549 10556 10559 10562 10564 10564 10549 10547
10707 10704 10697 10687 10681 10672 10668 10656 10648 10635 10631 10625 10620 10604 10589 10570 10551 10550 10535 10522 10520 10516 10504 10507 10499 10498 10496 10501 10505 10490 10500 10502 10506 10508 10514 10522 10524 10533 10538 10540 10550 10539 10530 10537
10697 10691 10683 10676 10669 10660 10646 10637 10628 10621 10604 10594 10591 10589 10568 10552 10540 10523 10510 10494 10491 10485 10475 10480 10474 10470 10470 10473 10473 10473 10475 10478 10482 10486 10493 10501 10503 10509 10516 10522 10526 10521 10517 10517
10688 10678 10673 10661 10654 10647 10636 10625 10617 10608 10600 10579 10567 10565 10542 10534 10524 10505 10486 10474 10469 10460 10454 10453 10448 10449 10448 10447 10448 10449 10451 10456 10459 10463 10474 10478 10487 10487 10494 10501 10503 10503 10502 10501
10675 10667 10662 10649 10642 10638 10629 10615 10602 10591 10579 10560 10549 10540 10519 10505 10494 10483 10470 10459 10451 10442 10436 10436 10430 10429 10428 10428 10429 10430 10433 10437 10441 10446 10456 10458 10466 10470 10475 10482 10483 10484 10485 10485
10661 10651 10646 10636 10626 10616 10609 10597 10585 10574 10564 10553 10524 10519 10504 10487 10474 10466 10457 10448 10439 10432 10425 10421 10419 10415 10414 10414 10414 10415 10416 10419 10425 10431 10439 10444 10449 10457 10463 10466 10468 10471 10472 10473
10649 10641 10634 10621 10615 10604 10596 10584 10572 10560 10546 10535 10521 10503 10492 10476 10464 10455 10445 10437 10431 10424 10418 10413 10410 10407 10404 10403 10404 10404 10406 10409 10413 10419 10427 10432 10439 10446 10451 10457 10459 10461 10462 10461
10637 10629 10621 10606 10600 10591 10584 10571 10559 10547 10536 10523 10508 10493 10481 10468 10457 10449 10441 10432 10426 10420 10415 10411 10405 10401 10398 10396 10396 10396 10398 10401 10405 10411 10418 10426 10432 10439 10446 10451 10451 10451 10450 10450
10622 10616 10608 10598 10586 10575 10572 10557 10544 10532 10519 10510 10498 10483 10472 10461 10454 10446 10438 10431 10424 10418 10412 10407 10402 10398 10396 10393 10393 10393 10394 10397 10401 10407 10415 10421 10426 10434 10438 10442 10442 10443 10443 10442
10610 10602 10593 10586 10575 10560 10556 10549 10533 10522 10505 10498 10488 10476 10465 10458 10451 10445 10438 10432 10425 10418 10412 10406 10402 10399 10395 10392 10391 10390 10390 10394 10401 10406 10411 10417 10423 10430 10433 10436 10438 10438 10436 10434
10592 10586 10578 10568 10561 10550 10545 10534 10517 10509 10494 10484 10478 10468 10460 10453 10447 10442 10436 10431 10426 10419 10413 10407 10403 10398 10394 10391 10389 10390 10391 10395 10399 10404 10409 10417 10424 10427 10432 10435 10436 10433 10432 10430
10580 10574 10567 10555 10545 10538 10521 10517 10507 10495 10487 10474 10466 10460 10453 10448 10443 10438 10434 10431 10426 10421 10415 10410 10405 10399 10395 10391 10389 10390 10392 10394 10398 10404 10413 10417 10422 10428 10431 10434 10433 10430 10429 10429
10569 10562 10551 10540 10530 10521 10514 10501 10492 10483 10475 10466 10459 10452 10446 10443 10440 10435 10433 10430 10426 10422 10417 10413 10409 10403 10397 10392 10391 10393 10394 10397 10402 10408 10413 10420 10426 10428 10431 10435 10435 10434 10433 10432
10545 10541 10531 10522 10512 10500 10496 10485 10479 10471 10459 10455 10449 10446 10441 10439 10436 10434 10432 10430 10427 10424 10420 10416 10412 10408 10401 10397 10398 10400 10399 10402 10406 10413 10418 10423 10427 10431 10435 10438 10439 10440 10438 10435
10532 10528 10520 10505 10492 10485 10476 10470 10464 10457 10450 10445 10441 10438 10437 10435 10434 10432 10430 10429 10427 10425 10422 10419 10416 10412 10408 10403 10402 10403 10404 10408 10413 10417 10424 10430 10433 10437 10441 10444 10447 10446 10445 10445
10515 10513 10503 10491 10476 10469 10461 10452 10448 10443 10439 10436 10433 10432 10431 10431 10430 10431 10430 10429 10428 10426 10423 10421 10418 10415 10412 10409 10407 10407 10410 10414 10420 10426 10431 10436 10441 10445 10449 10452 10453 10452 10451 10450
10502 10493 10484 10475 10464 10457 10444 10440 10436 10431 10428 10426 10425 10426 10426 10426 10428 10427 10427 10427 10427 10425 10424 10422 10421 10417 10415 10413 10412 10413 10416 10423 10427 10433 10439 10445 10451 10454 10456 10458 10458 10458 10457 10455
10483 10474 10469 10461 10453 10445 10435 10429 10426 10421 10420 10418 10420 10422 10422 10422 10423 10423 10424 10423 10423 10424 10423 10422 10423 10420 10419 10417 10419 10422 10426 10431 10436 10442 10449 10455 10460 10462 10464 10465 10464 10463 10463 10461